LAGEOS 1 AKM, 8822

Orbit data source: Space-Track

LAGEOS 1 AKM, 8822 is space debris originally from a launch on Tue, 04 May 1976 UTC launched from the Air Force Western Test Range (AFWTR). Debris objects in space refer to the collection of defunct objects orbiting the Earth. Examples of debris include non-operational satellites, rocket bodies, and fragments generated from explosions, collisions, or faulty payload assembly.

Loading next visibility...
Identifier
8822, 1976-039C
Orbit
Active
Country
Flag of USUS
Related business
Manufacturer
Thiokol/TE
Mission
Spacecraft
Bus & Motor
STAR 24, TE-M-604
Mass
218 kg wet, 16 kg dry
Launch date (UTC)
1976-05-04 (50 years ago)
Launch vehicle
Unknown
Launch site
Air Force Western Test Range (AFWTR)
Object type
Payload
Rocket body
Debris
Shape & HBR
Unknown
Radar Cross Section
Large (>1 m²)

Expand to show TLE details & history
Last TLE update: 11 hours ago

TLE from 11 hours ago
0 LAGEOS 1 AKM
1 08822U 76039C   25308.92342492  .00000017  00000-0  00000-0 0  9996
2 08822 109.8366 107.2330 0044891 347.0653 174.5200  6.38871123154823
Epoch: 2025-11-04T22:09Z
TLE epoch observation values (Epoch: 2025-11-04T22:09:43.913Z)
Latitude
17.2273°
Longitude
-83.2022°
Altitude
5,946.149 km
Speed
5.676 km/s
True Right ascension
19h 34m 32s
True Declination
17° 10' 16"
Sunlit
Object was in daylight at epoch
Visualization orbit readout
Latitude
Unknown
Longitude
Unknown
Altitude
Unknown
Speed
Unknown
Apparent Right ascension
Unknown
Apparent Declination
Unknown
Sunlit
N/A
Visualization observer readout
Local Sidereal Time
05:09:39
Azimuth
Unknown
Elevation
Unknown
Doppler factor
Unknown
Orbital elements
Apogee altitude
5,944.309 km
Perigee altitude
5,834.17 km
Semi-major axis
12,267.376 km
Eccentricity
0.00449
Inclination
109.8366°
RAAN
107.233°
Arg. of periapsis
347.0653°
True anomaly
174.56885°
Mean anomaly
174.52°
Eccentric anomaly
174.54445°
Mean motion
1.59741 °/min
Orbital period
225.37 mins
BSTAR
0
Loading maneuver chart data...
Computing Atmospheric mass density...
Loading historical data...
Loading historical data...
Loading historical data...
Loading historical data...
Loading historical data...
Loading historical data...
Loading historical data...
Other satellites on launch #39 in the year 1976 (1976-05-04 UTC)

Documentation

Showing up to 5 results
|